Regional Weather Roundup
Issued by NWS Charleston, SC

Current Version | Previous Version | Text Only | Print | Product List | Glossary On
Versions: 1 2 3 4 5 6 7 8 9 10 11 12 13 14 15 16 17 18 19 20 21 22 23 24 25 26 27 28 29 30 31 32 33 34 35 36 37 38 39 40 41 42 43 44 45 46 47 48 49 50
000 ASUS42 KCHS 290311 RWRCHS REGIONAL WEATHER ROUNDUP NATIONAL WEATHER SERVICE CHARLESTON SC 1100 PM EDT SAT MAR 28 2015 NOTE: "FAIR" INDICATES FEW OR NO CLOUDS BELOW 12,000 FEET WITH NO SIGNIFICANT WEATHER AND/OR OBSTRUCTIONS TO VISIBILITY. NOT ALL STATIONS ARE QUALITY CONTROLLED BY THE NATIONAL WEATHER SERVICE. USE DATA WITH CAUTION...ESPECIALLY DEWPOINT OBSERVATIONS. SCZ027-030-031-034>040-042>050-290400- ...SOUTHEAST SOUTH CAROLINA... CITY SKY/WX TMP DP RH WIND PRES REMARKS N CHARLESTON CLEAR 46 28 49 N3 30.21R WATERFRONT PRK N/A 52 N/A N/A E6 N/A MOUNT PLEASANT LGT RAIN 41 36 81 CALM 30.21R PINOPOLIS N/A 54 21 28 VRB9 30.11R MONCKS CORNER FAIR 43 36 75 CALM 30.20R SUMMERVILLE FAIR 41 36 81 CALM 30.21R BEAUFORT MCAS NOT AVBL BEAUFORT ARPT FAIR 50 32 50 NW6 30.21R HILTON HEAD IS CLEAR 48 28 46 W5 30.22R WALTERBORO CLEAR 39 32 75 CALM 30.21S ALLENDALE FAIR 41 30 65 CALM 30.20R ...SOUTHERN MIDLANDS AND PEE DEE... CITY SKY/WX TMP DP RH WIND PRES REMARKS GEORGETOWN NOT AVBL KINGSTREE NOT AVBL ORANGEBURG CLEAR 39 32 76 CALM 30.20R BARNWELL FAIR 37 34 87 CALM 30.21R AIKEN FAIR 39 23 52 NW5 30.24R WCI 36 MANNING FLURRIES 34 30 86 CALM 30.21R COLUMBIA PTCLDY 47 19 33 N10G18 30.21R SUMTER CLEAR 38 23 54 N13 30.20R WCI 31 FLORENCE FAIR 41 25 53 N9 30.21R MYRTLE BEACH CLEAR 45 28 53 CALM 30.23R N MYRTLE BEACH CLEAR 40 32 73 N3 30.20R $$ GAZ063-065-086>088-099>101-113>116-118-119-134>141-150-290400- ...SOUTHEAST GEORGIA... CITY SKY/WX TMP DP RH WIND PRES REMARKS SAVANNAH ARPT CLEAR 42 33 70 CALM 30.23R HUNTER AAF CLEAR 44 31 61 W6 30.20R FORT STEWART CLEAR 41 33 74 CALM 30.20R STATESBORO CLEAR 38 33 82 CALM 30.22R SYLVANIA CLEAR 38 33 80 CALM 30.22R CLAXTON FAIR 39 36 87 CALM 30.22S ...CSRA...CENTRAL AND FAR SOUTHEAST GEORGIA... CITY SKY/WX TMP DP RH WIND PRES REMARKS THOMSON CLEAR 41 29 62 CALM 30.27R AUGUSTA-BUSH CLEAR 46 20 35 W10 30.21R AUGUSTA-DANIEL CLEAR 49 18 29 W8 30.21R SWAINSBORO FAIR 39 27 60 NW3 30.23R VIDALIA CLEAR 45 36 70 CALM 30.22S EASTMAN MOCLDY 42 36 80 CALM 30.25R HAZLEHURST FAIR 45 37 76 CALM 30.22R ALMA MOCLDY 47 42 83 CALM 30.23R WAYCROSS CLOUDY 47 44 88 CALM 30.23R JESUP FAIR 43 37 81 CALM 30.22S BAXLEY FAIR 45 41 87 CALM 30.22R BRUNSWICK CLEAR 45 36 70 CALM 30.23S SAINT SIMONS CLEAR 48 34 58 CALM 30.23R $$ SCZ027-028-034-036>038-045-046-048>050-GAZ119-141-290400- ...LAKE AND SUPPLEMENTAL COASTAL OBSERVATIONS... STATION/POSITION TIME TEMP WIND PRES WAVE SWELL AIR SEA DIR/SP/G HT/PER HT/PER/DIR (UTC) (F) (DEG/KT/KT) (MB) (FT/S) (FT/S/D) UPR LAKE MARION NOT AVBL WINYAH BAY NOT AVBL LAKE MURRAY 0200 47 340/ 3/ 7 1021.7R ACE BASIN NERRS NOT AVBL FORT PULASKI 0206 54 61 290/ 7/ 8 1023.3R SAPELO ISLAND 0200 52 270/ 5 1023.0R $$ ANZ835-935-AMZ111-154-330-350-352-354-370-450-454-472-290400- ...C-MAN AND BUOY OBSERVATIONS... STATION/POSITION TIME TEMP WIND PRES WAVE SWELL AIR SEA DIR/SP/G HT/PER HT/PER/DIR (UTC) (F) (DEG/KT/KT) (MB) (FT/S) (FT/S/D) BUOY 41004 0250 56 68 330/ 17/ 23 1021.8R 4/ 4 2/ 9 BUOY 41008 0250 57 60 310/ 14/ 17 1023.0R 2/ 4 2/ 40/ 8 FOLLY BEACH CMAN 0300 48 340/ 4/ 5 1022.9R CAPERS NEARSHORE NOT AVBL FRIPP NEARSHORE 0200 55 310/ 14/ 16 1021.6R STATION/POSITION TIME TEMP WIND PRES WAVE SWELL AIR SEA DIR/SP/G HT/PER HT/PER/DIR (UTC) (F) (DEG/KT/KT) (MB) (FT/S) (FT/S/D) 5E ST. MARYS GA 0221 60 N/A 2/ 9 FRYING PAN BUOY 0250 52 65 360/ 17/ 23 1022.4R 4/ 4 2/110/ 9 BUOY 41025 NOT AVBL CAPE LOOKOUT NC 0200 43 350/ 13/ 16 1021.9R BUOY 41002 0250 58 68 320/ 16/ 21 1019.8R 10/ 8 8/260/ 8 BUOY 41010 0220 65 76 300/ 14/ 17 1022.1R ST AUGUSTINE FL 0300 54 60 310/ 8/ 9 1024.4R $$

USA.gov is the U.S. government's official web portal to all federal, state and local government web resources and services.